Tracking 35237 objects as of 5-Sep-2026
HD Live streaming from Space Station
objects crossing your sky now

GSTAR 1

Track GSTAR 1 now!
GSTAR 1 is classified as:


NORAD ID: 15677
Int'l Code: 1985-035A
Launch date: May 8, 1985
Source: United States (US)
Launch site: FRENCH GUIANA (FRGUI)
Your satellite tracking list
Your tracking list is empty




NASA's NSSDC Master Catalog

Two Line Element Set (TLE):
1 15677U 85035A   26247.33959757 -.00000115  00000-0  00000-0 0  9994
2 15677  14.2919 348.1081 0004315 161.9916 210.4260  1.00272304126008
Source of the keplerian elements: AFSPC